Date,TemperatureHighF,TemperatureAvgF,TemperatureLowF,DewpointHighF,DewpointAvgF,DewpointLowF,HumidityHigh,HumidityAvg,HumidityLow,PressureMaxIn,PressureMinIn,WindSpeedMaxMPH,WindSpeedAvgMPH,GustSpeedMaxMPH,PrecipitationSumIn
2013-1-1,29,27,24,0,0,0,0,0,100,0.00,0.00,3,1,3,0.00
2013-1-2,19,8,-6,0,0,0,0,0,100,0.00,0.00,3,1,3,0.00
2013-1-3,11,0,-11,0,0,0,0,0,100,0.00,0.00,0,0,0,0.00
2013-1-4,32,24,11,0,0,0,0,0,100,0.00,0.00,4,0,4,0.00
2013-1-5,30,26,18,0,0,0,0,0,100,0.00,0.00,4,1,4,0.00
2013-1-6,32,25,16,0,0,0,0,0,100,0.00,0.00,0,0,0,0.00
2013-1-7,32,28,22,0,0,0,0,0,100,0.00,0.00,1,0,1,0.00
2013-1-8,37,29,20,0,0,0,0,0,100,0.00,0.00,2,0,2,0.00
2013-1-9,39,31,22,0,0,0,0,0,100,0.00,0.00,4,0,4,0.00
2013-1-10,38,35,30,0,0,0,0,0,100,0.00,0.00,4,2,4,0.00
2013-1-11,35,30,24,0,0,0,0,0,100,0.00,0.00,0,0,0,0.00
2013-1-12,38,35,32,0,0,0,0,0,100,0.00,0.00,0,0,0,0.00
2013-1-13,44,40,35,0,0,0,0,0,100,0.00,0.00,0,0,0,0.00
2013-1-14,50,42,33,0,0,0,0,0,100,0.00,0.00,4,1,4,0.00
2013-1-15,32,29,26,0,0,0,0,0,100,0.00,0.00,0,0,0,0.00
2013-1-16,30,28,26,0,0,0,0,0,100,0.00,0.00,0,0,0,0.00
2013-1-17,35,27,19,0,0,0,0,0,100,0.00,0.00,0,0,0,0.00
2013-1-18,15,8,-1,0,0,0,0,0,100,0.00,0.00,1,0,1,0.00
2013-1-19,38,27,17,0,0,0,0,0,100,0.00,0.00,0,0,0,0.00
2013-1-20,38,38,37,0,0,0,0,0,100,0.00,40.00,2,2,2,0.00
2013-1-21,22,16,10,0,0,0,0,0,100,0.00,0.00,1,0,1,0.00
2013-1-22,16,11,2,0,0,0,0,0,100,0.00,0.00,3,0,3,0.00
2013-1-23,1,-4,-13,0,0,0,0,0,100,0.00,0.00,2,0,2,0.00
2013-1-24,6,-4,-15,0,0,0,0,0,100,0.00,0.00,8,2,8,0.00
2013-1-25,11,4,-6,0,0,0,0,0,100,0.00,0.00,2,0,2,0.00
2013-1-26,12,6,1,0,0,0,0,0,100,0.00,0.00,4,0,4,0.00
2013-1-27,20,11,5,0,0,0,0,0,100,0.00,0.00,0,0,0,0.00
2013-1-28,21,13,4,0,0,0,0,0,100,0.00,0.00,0,0,0,0.00
2013-1-29,33,25,18,0,0,0,0,0,100,0.00,0.00,0,0,0,0.00
2013-1-30,47,34,31,0,0,0,0,0,100,0.00,0.00,0,0,0,0.00
2013-1-31,54,50,39,0,0,0,0,0,100,0.00,0.00,2,1,2,0.00
2013-2-1,22,18,17,0,0,0,0,0,100,0.00,0.00,2,1,2,0.00
2013-2-2,20,11,6,0,0,0,0,0,100,0.00,0.00,0,0,0,0.00
2013-2-3,25,17,10,0,0,0,0,0,100,0.00,0.00,0,0,0,0.00
2013-2-4,24,18,14,0,0,0,0,0,100,0.00,0.00,4,1,4,0.00
2013-2-5,10,8,6,0,0,0,0,0,100,0.00,0.00,0,0,0,0.00
2013-2-6,30,23,16,0,0,0,0,0,100,0.00,0.00,2,0,2,0.00
2013-2-7,20,13,5,0,0,0,0,0,100,0.00,0.00,2,0,2,0.00
2013-2-8,17,15,12,0,0,0,0,0,100,0.00,0.00,2,0,2,0.00
2013-2-9,16,11,6,0,0,0,0,0,100,0.00,0.00,5,2,5,0.00
2013-2-10,29,13,2,0,0,0,0,0,100,0.00,0.00,0,0,0,0.00
2013-2-11,29,22,16,0,0,0,0,0,100,0.00,0.00,0,0,0,0.00
2013-2-12,38,34,31,0,0,0,0,0,100,0.00,0.00,4,1,4,0.00
2013-2-13,38,31,26,0,0,0,0,0,100,0.00,0.00,0,0,0,0.00
2013-2-14,38,30,26,0,0,0,0,0,100,0.00,0.00,0,0,0,0.00
2013-2-15,46,33,25,0,0,0,0,0,100,0.00,0.00,2,0,2,0.00
2013-2-16,34,29,21,0,0,0,0,0,100,0.00,0.00,2,0,2,0.00
2013-2-17,19,14,8,0,0,0,0,0,100,0.00,0.00,5,2,5,0.00
2013-2-18,23,14,4,0,0,0,0,0,100,0.00,0.00,6,4,6,0.00
2013-2-19,17,15,14,0,0,0,0,0,100,0.00,0.00,0,0,0,0.00
2013-2-20,33,28,25,0,0,0,0,0,100,0.00,0.00,2,1,2,0.00
2013-2-21,25,18,14,0,0,0,0,0,100,0.00,0.00,4,1,4,0.00
2013-2-22,38,28,18,0,0,0,0,0,100,0.00,0.00,0,0,0,0.00
2013-2-23,27,27,26,0,0,0,0,0,100,0.00,0.00,0,0,0,0.00
2013-2-24,34,32,30,0,0,0,0,0,100,0.00,0.00,0,0,0,0.00
2013-2-25,35,31,26,0,0,0,0,0,100,0.00,0.00,0,0,0,0.00
2013-2-26,39,33,29,0,0,0,0,0,100,0.00,0.00,0,0,0,0.00
2013-2-27,31,31,31,0,0,0,0,0,100,0.00,40.00,1,1,1,0.00
2013-2-28,42,34,27,0,0,0,0,0,100,0.00,0.00,0,0,0,0.00
2013-3-1,36,33,30,0,0,0,0,0,100,0.00,0.00,0,0,0,0.00
2013-3-2,35,31,26,0,0,0,0,0,100,0.00,0.00,3,0,3,0.00
2013-3-3,35,28,23,0,0,0,0,0,100,0.00,0.00,0,0,0,0.00
2013-3-4,32,27,25,0,0,0,0,0,100,0.00,0.00,4,1,4,0.00
2013-3-5,41,31,25,0,0,0,0,0,100,0.00,0.00,1,0,1,0.00
2013-3-6,34,32,29,0,0,0,0,0,100,0.00,0.00,2,1,2,0.00
2013-3-7,36,30,26,0,0,0,0,0,100,0.00,0.00,2,0,2,0.00
2013-3-8,38,32,27,0,0,0,0,0,100,0.00,0.00,1,0,1,0.00
2013-3-9,29,29,29,0,0,0,0,0,100,0.00,40.00,0,0,0,0.00
2013-3-10,50,39,27,0,0,0,0,0,100,0.00,0.00,0,0,0,0.00
2013-3-11,49,40,32,0,0,0,0,0,100,0.00,0.00,0,0,0,0.00
2013-3-12,48,42,38,0,0,0,0,0,100,0.00,0.00,2,0,2,0.00
2013-3-13,44,37,30,0,0,0,0,0,100,0.00,0.00,0,0,0,0.00
2013-3-14,32,26,15,0,0,0,0,0,100,0.00,0.00,2,1,2,0.00
2013-3-15,15,15,15,0,0,0,0,0,100,0.00,40.00,0,0,0,0.00
2013-3-16,33,26,18,0,0,0,0,0,100,0.00,0.00,2,0,2,0.00
2013-3-17,30,22,15,0,0,0,0,0,100,0.00,0.00,4,1,4,0.00
2013-3-18,36,23,8,0,0,0,0,0,100,0.00,0.00,0,0,0,0.00
2013-3-19,25,25,25,0,0,0,0,0,100,0.00,40.00,0,0,0,0.00
2013-3-20,35,27,22,0,0,0,0,0,100,0.00,0.00,0,0,0,0.00
2013-3-21,42,28,15,0,0,0,0,0,100,0.00,0.00,0,0,0,0.00
2013-3-22,37,28,16,0,0,0,0,0,100,0.00,0.00,2,1,2,0.00
2013-3-23,36,30,23,0,0,0,0,0,100,0.00,0.00,4,2,4,0.00
2013-3-24,42,33,27,0,0,0,0,0,100,0.00,0.00,4,0,4,0.00
2013-3-25,46,32,24,0,0,0,0,0,100,0.00,0.00,0,0,0,0.00
2013-3-26,46,39,31,0,0,0,0,0,100,0.00,0.00,2,0,2,0.00
2013-3-27,47,38,28,0,0,0,0,0,100,0.00,0.00,4,1,4,0.00
2013-3-28,48,37,33,0,0,0,0,0,100,0.00,0.00,0,0,0,0.00
2013-3-29,48,39,35,0,0,0,0,0,100,0.00,0.00,0,0,0,0.00
2013-3-30,51,41,33,0,0,0,0,0,100,0.00,0.00,1,0,1,0.00
2013-3-31,32,30,29,0,0,0,0,0,100,0.00,40.00,0,0,0,0.00
2013-4-1,54,40,36,0,0,0,0,0,100,0.00,40.00,0,0,1,0.00
2013-4-2,32,26,22,0,0,0,0,0,100,0.00,0.00,3,1,3,0.00
2013-4-3,42,29,22,0,0,0,0,0,100,0.00,0.00,4,2,4,0.00
2013-4-4,52,37,24,0,0,0,0,0,100,0.00,0.00,0,0,0,0.00
2013-4-5,56,41,33,0,0,0,0,0,100,0.00,0.00,2,0,2,0.00
2013-4-6,33,26,21,0,0,0,0,0,100,0.00,0.00,4,2,4,0.00
2013-4-7,54,38,30,0,0,0,0,0,100,0.00,0.00,0,0,0,0.00
2013-4-8,55,47,39,0,0,0,0,0,100,0.00,0.00,0,0,0,0.00
2013-4-9,45,42,40,0,0,0,0,0,100,0.00,40.00,2,1,2,0.00
2013-4-10,42,42,42,0,0,0,0,0,100,0.00,40.00,0,0,0,0.00
2013-4-11,40,40,40,0,0,0,0,0,100,0.00,40.00,0,0,0,0.00
2013-4-12,32,30,28,0,0,0,0,0,100,0.00,0.00,2,1,2,0.00
2013-4-13,42,36,31,0,0,0,0,0,100,0.00,40.00,0,0,0,0.00
2013-4-14,46,40,36,0,0,0,0,0,100,0.00,0.00,4,1,4,0.00
2013-4-15,31,31,31,0,0,0,0,0,100,0.00,40.00,0,0,0,0.00
2013-4-16,38,38,38,0,0,0,0,0,100,0.00,40.00,0,0,0,0.00
2013-4-17,54,46,42,0,0,0,0,0,100,0.00,40.00,2,0,2,0.00
2013-4-18,59,50,36,0,0,0,0,0,100,0.00,0.00,1,0,1,0.00
2013-4-20,44,42,40,0,0,0,0,0,100,0.00,40.00,0,0,0,0.00
2013-4-21,31,31,31,0,0,0,0,0,100,0.00,40.00,0,0,0,0.00
2013-4-22,36,34,31,0,0,0,0,0,100,0.00,40.00,0,0,0,0.00
2013-4-23,32,32,32,0,0,0,0,0,100,0.00,40.00,0,0,0,0.00
2013-4-24,68,53,39,0,0,0,0,0,100,0.00,0.00,0,0,0,0.00
2013-4-26,60,50,37,0,0,0,0,0,100,0.00,0.00,0,0,0,0.00
2013-4-27,43,41,39,0,0,0,0,0,100,0.00,40.00,0,0,0,0.00
2013-4-28,70,50,38,0,0,0,0,0,100,0.00,0.00,0,0,0,0.00
2013-4-29,65,52,45,0,0,0,0,0,100,0.00,40.00,0,0,0,0.00
2013-4-30,66,55,50,0,0,0,0,0,100,0.00,0.00,0,0,0,0.00
2013-5-1,78,67,44,0,0,0,0,0,100,0.00,0.00,0,0,0,0.00
2013-5-2,55,50,48,0,0,0,0,0,100,0.00,40.00,0,0,0,0.00
2013-5-3,71,56,38,0,0,0,0,0,100,0.00,0.00,0,0,0,0.00
2013-5-4,75,58,44,0,0,0,0,0,100,0.00,0.00,0,0,0,0.00
2013-5-5,46,42,38,0,0,0,0,0,100,0.00,0.00,0,0,0,0.00
2013-5-6,79,67,39,0,0,0,0,0,100,0.00,0.00,0,0,0,0.00
2013-5-7,81,63,50,0,0,0,0,0,100,0.00,0.00,0,0,0,0.00
2013-5-8,72,62,55,0,0,0,0,0,100,0.00,0.00,1,0,1,0.00
2013-5-9,67,62,56,0,0,0,0,0,100,0.00,0.00,0,0,0,0.00
2013-5-10,80,65,51,0,0,0,0,0,100,0.00,0.00,1,0,1,0.00
2013-5-11,65,63,59,0,0,0,0,0,100,0.00,0.00,0,0,0,0.00
2013-5-12,66,55,46,0,0,0,0,0,100,0.00,0.00,1,0,1,0.00
2013-5-13,46,42,38,0,0,0,0,0,100,0.00,0.00,2,0,2,0.00
2013-5-14,54,46,36,0,0,0,0,0,100,0.00,0.00,1,0,1,0.00
2013-5-15,46,39,35,0,0,0,0,0,100,0.00,0.00,0,0,0,0.00
2013-5-16,79,64,48,0,0,0,0,0,100,0.00,0.00,4,1,4,0.00
2013-5-17,66,54,46,0,0,0,0,0,100,0.00,0.00,2,0,2,0.00
2013-5-18,74,59,42,0,0,0,0,0,100,0.00,0.00,0,0,0,0.00
2013-5-19,68,55,46,0,0,0,0,0,100,0.00,0.00,0,0,0,0.00
2013-5-20,78,64,54,0,0,0,0,0,100,0.00,0.00,0,0,0,0.00
2013-5-21,82,65,50,0,0,0,0,0,100,0.00,0.00,0,0,0,0.00
2013-5-22,68,56,50,0,0,0,0,0,100,0.00,0.00,1,0,1,0.00
2013-5-23,74,61,51,0,0,0,0,0,100,0.00,0.00,0,0,0,0.00
2013-5-24,64,56,44,0,0,0,0,0,100,0.00,0.00,2,0,2,0.00
2013-5-25,44,41,35,0,0,0,0,0,100,0.00,0.00,2,0,2,0.00
2013-5-26,50,43,34,0,0,0,0,0,100,0.00,0.00,4,1,4,0.00
2013-5-27,70,54,40,0,0,0,0,0,100,0.00,0.00,2,0,2,0.00
2013-5-28,75,59,43,0,0,0,0,0,100,0.00,0.00,0,0,0,0.00
2013-5-29,55,55,54,0,0,0,0,0,100,0.00,40.00,0,0,0,0.00
2013-5-30,83,73,61,0,0,0,0,0,100,0.00,0.00,1,0,1,0.00
2013-5-31,91,76,64,0,0,0,0,0,100,0.00,0.00,1,0,1,0.00
2013-6-1,92,78,68,0,0,0,0,0,100,0.00,0.00,0,0,0,0.00
2013-6-2,89,73,64,0,0,0,0,0,100,0.00,0.00,0,0,0,0.00
2013-6-3,79,67,61,0,0,0,0,0,100,0.00,0.00,0,0,0,0.00
2013-6-4,51,49,47,0,0,0,0,0,100,0.00,40.00,0,0,0,0.00
2013-6-5,76,62,49,0,0,0,0,0,100,0.00,0.00,0,0,0,0.00
2013-6-6,73,62,52,0,0,0,0,0,100,0.00,0.00,0,0,0,0.00
2013-6-7,54,52,50,0,0,0,0,0,100,0.00,0.00,0,0,0,0.00
2013-6-8,67,60,51,0,0,0,0,0,100,0.00,0.00,0,0,0,0.00
2013-6-9,74,63,55,0,0,0,0,0,100,0.00,0.00,0,0,0,0.00
2013-6-10,69,62,56,0,0,0,0,0,100,0.00,0.00,0,0,0,0.00
2013-6-11,57,54,53,0,0,0,0,0,100,0.00,0.00,0,0,0,0.00
2013-6-12,60,57,54,0,0,0,0,0,100,0.00,0.00,0,0,0,0.00
2013-6-13,64,57,50,0,0,0,0,0,100,0.00,0.00,0,0,0,0.00
2013-6-14,77,62,51,0,0,0,0,0,100,0.00,0.00,0,0,0,0.00
2013-6-15,77,64,55,0,0,0,0,0,100,0.00,0.00,0,0,0,0.00
2013-6-16,75,62,56,0,0,0,0,0,100,0.00,0.00,0,0,0,0.00
2013-6-17,75,64,57,0,0,0,0,0,100,0.00,0.00,1,0,1,0.00
2013-6-18,60,57,54,0,0,0,0,0,100,0.00,0.00,0,0,0,0.00
2013-6-19,75,60,48,0,0,0,0,0,100,0.00,0.00,0,0,0,0.00
2013-6-20,82,64,48,0,0,0,0,0,100,0.00,0.00,2,0,2,0.00
2013-6-21,86,70,58,0,0,0,0,0,100,0.00,0.00,0,0,0,0.00
2013-6-22,82,70,60,0,0,0,0,0,100,0.00,0.00,0,0,0,0.00
2013-6-23,87,71,64,0,0,0,0,0,100,0.00,0.00,0,0,0,0.00
2013-6-24,90,75,67,0,0,0,0,0,100,0.00,0.00,0,0,0,0.00
2013-6-25,87,74,66,0,0,0,0,0,100,0.00,0.00,0,0,0,0.00
2013-6-26,75,68,65,0,0,0,0,0,100,0.00,0.00,0,0,0,0.00
2013-6-27,75,69,64,0,0,0,0,0,100,0.00,0.00,0,0,0,0.00
2013-6-28,67,62,56,0,0,0,0,0,100,0.00,0.00,1,0,1,0.00
2013-6-29,83,73,64,0,0,0,0,0,100,0.00,0.00,1,0,1,0.00
2013-6-30,83,72,66,0,0,0,0,0,100,0.00,0.00,0,0,0,0.00
2013-7-1,75,70,67,0,0,0,0,0,100,0.00,0.00,0,0,0,0.00
2013-7-2,68,68,68,0,0,0,0,0,100,0.00,40.00,0,0,0,0.00
2013-7-3,63,62,62,0,0,0,0,0,100,0.00,40.00,0,0,0,0.00
2013-7-4,70,70,70,0,0,0,0,0,100,0.00,40.00,0,0,0,0.00
2013-7-5,71,71,71,0,0,0,0,0,100,0.00,40.00,0,0,0,0.00
2013-7-7,90,75,68,0,0,0,0,0,100,0.00,0.00,0,0,0,0.00
2013-7-8,84,75,68,0,0,0,0,0,100,0.00,0.00,0,0,0,0.00
2013-7-9,82,71,63,0,0,0,0,0,100,0.00,0.00,0,0,0,0.00
2013-7-11,79,72,67,0,0,0,0,0,100,0.00,0.00,0,0,0,0.00
2013-7-12,64,62,61,0,0,0,0,0,100,0.00,0.00,0,0,0,0.00
2013-7-17,92,82,69,0,0,0,0,0,100,0.00,0.00,0,0,0,0.00
2013-7-18,76,74,71,0,0,0,0,0,100,0.00,0.00,0,0,0,0.00
2013-7-20,86,74,66,0,0,0,0,0,100,0.00,0.00,2,0,2,0.00
2013-7-21,79,71,63,0,0,0,0,0,100,0.00,0.00,0,0,0,0.00
2013-7-22,74,67,63,0,0,0,0,0,100,0.00,0.00,0,0,0,0.00
2013-7-23,72,66,63,0,0,0,0,0,100,0.00,0.00,0,0,0,0.00
2013-7-24,74,67,65,0,0,0,0,0,100,0.00,0.00,0,0,0,0.00
2013-7-25,73,62,48,0,0,0,0,0,100,0.00,0.00,0,0,0,0.00
2013-7-26,68,63,60,0,0,0,0,0,100,0.00,0.00,0,0,0,0.00
2013-7-27,84,70,57,0,0,0,0,0,100,0.00,0.00,0,0,0,0.00
2013-7-28,82,69,61,0,0,0,0,0,100,0.00,0.00,0,0,0,0.00
2013-7-29,84,71,64,0,0,0,0,0,100,0.00,0.00,0,0,0,0.00
2013-7-30,76,67,59,0,0,0,0,0,100,0.00,0.00,0,0,0,0.00
2013-7-31,74,65,59,0,0,0,0,0,100,0.00,0.00,0,0,0,0.00
2013-8-1,76,66,61,0,0,0,0,0,100,0.00,0.00,0,0,0,0.00
2013-8-2,76,66,62,0,0,0,0,0,100,0.00,0.00,0,0,0,0.00
2013-8-3,76,64,59,0,0,0,0,0,100,0.00,0.00,0,0,0,0.00
2013-8-4,72,64,58,0,0,0,0,0,100,0.00,0.00,2,0,2,0.00
2013-8-5,73,58,54,0,0,0,0,0,100,0.00,0.00,1,0,1,0.00
2013-8-6,82,64,51,0,0,0,0,0,100,0.00,0.00,0,0,0,0.00
2013-8-7,78,67,58,0,0,0,0,0,100,0.00,0.00,0,0,0,0.00
2013-8-8,84,71,64,0,0,0,0,0,100,0.00,0.00,0,0,0,0.00
2013-8-9,73,70,68,0,0,0,0,0,100,0.00,0.00,0,0,0,0.00
2013-8-10,71,66,62,0,0,0,0,0,100,0.00,0.00,0,0,0,0.00
2013-8-11,79,64,55,0,0,0,0,0,100,0.00,0.00,0,0,0,0.00
2013-8-12,80,67,58,0,0,0,0,0,100,0.00,0.00,0,0,0,0.00
2013-8-13,70,64,61,0,0,0,0,0,100,0.00,0.00,0,0,0,0.00
2013-8-22,85,75,67,0,0,0,0,0,100,0.00,0.00,0,0,0,0.00
2013-8-23,75,66,58,0,0,0,0,0,100,0.00,0.00,1,0,1,0.00
2013-8-24,81,63,50,0,0,0,0,0,100,0.00,0.00,0,0,0,0.00
2013-8-25,83,65,53,0,0,0,0,0,100,0.00,0.00,0,0,0,0.00
2013-8-26,74,68,60,0,0,0,0,0,100,0.00,0.00,0,0,0,0.00
2013-8-27,86,73,66,0,0,0,0,0,100,0.00,0.00,0,0,0,0.00
2013-8-28,86,72,64,0,0,0,0,0,100,0.00,0.00,2,0,2,0.00
2013-8-29,68,64,61,0,0,0,0,0,100,0.00,0.00,0,0,0,0.00
2013-8-30,61,60,60,0,0,0,0,0,100,0.00,0.00,0,0,0,0.00
2013-8-31,76,71,66,0,0,0,0,0,100,0.00,0.00,0,0,0,0.00
2013-9-1,82,72,67,0,0,0,0,0,100,0.00,0.00,0,0,0,0.00
2013-9-2,74,70,66,0,0,0,0,0,100,0.00,0.00,0,0,0,0.00
2013-9-3,66,65,64,0,0,0,0,0,100,0.00,40.00,0,0,0,0.00
2013-9-4,77,66,58,0,0,0,0,0,100,0.00,0.00,0,0,0,0.00
2013-9-5,61,61,61,0,0,0,0,0,100,0.00,40.00,0,0,0,0.00